Starlink 32138

operational
NORAD ID: 60255 Int'l Des: 2024-131 Owner: SPXS Country: US Constellation: starlink
LEOCIRCULAR

About Starlink 32138

Description loading...

Live Position

Loading 3D Globe...

Upcoming Passes

Altitude History

Altitude vs Time

uPlot chart will show altitude changes over time

Two-Line Element Set

1 60255U 24131A 25349.54369576 .00001184 00000-0 52101-4 0 9994
2 60255 53.1604 83.4133 0001029 100.5502 259.5615 15.30194985 79134
Epoch: Dec 15, 2025 • Age: 33 hours

Current Status

Altitude 475.5 km
Velocity 7.63 km/s
Sub-Earth Point 8.08°N, 27.15°E
Launch Date Jul 27, 2024
Age 1.3 years
Type internet

Technical Details

Classification Payload
Mass 730.00 kg
Dry Mass 700.00 kg
Total Mass 730.00 kg
Length 0.30 m
Diameter 4.10 m
Span 29.00 m
Shape Box + pan
Manufacturer SPXS
Bus Type Starlink V2M
Phase Status In Orbit
Owner/State SPXS/US

Large Constellations

Loading constellations...